QPF
0.00 0.00 0.00 0.00 0.00 0.00 0.00 0.00 0.00 0.00 0.00 0.00 0.00 0.00 0.00 0.00 0.00 0.00 0.00 0.00 0.00 0.00 0.00 0.00 0.00 0.00 0.00 0.00 0.00 0.00 0.00 0.00 0.00 0.00 0.00 0.00 0.00 0.00 0.00 0.00 0.00 0.00 0.00 0.00
0.00 0.00 0.00 0.00 0.00 0.00 0.00 0.00 0.00 0.00 0.00 0.00 0.00 0.00 0.00 0.00 0.00 0.00 0.00 0.00 0.00 0.00 0.00 0.00 0.00 0.00 0.00 0.00 0.00 0.00 0.02 0.00 0.00 0.00 0.00 0.00 0.00 0.00 0.00 0.00 0.00 0.00 0.00 0.00
0.00 0.00 0.00 0.00 0.00 0.00 0.00 0.00 0.00 0.00 0.00 0.00 0.00 0.00 0.00 0.00 0.00 0.00 0.00 0.00 0.00 0.00 0.00 0.00 0.00 0.00 0.00 0.00 0.00 0.00 0.01 0.02 0.00 0.00 0.00 0.00 0.00 0.00 0.00 0.00 0.00 0.00 0.00 0.00
0.00 0.00 0.00 0.00 0.00 0.00 0.00 0.00 0.00 0.00 0.00 0.00 0.00 0.00 0.00 0.00 0.00 0.00 0.00 0.00 0.00 0.00 0.00 0.00 0.00 0.00 0.00 0.00 0.00 0.00 0.00 0.00 0.00 0.00 0.00 0.00 0.00 0.00 0.00 0.00 0.00 0.00 0.00 0.00
0.00 0.00 0.00 0.00 0.00 0.00 0.00 0.00 0.00 0.00 0.00 0.00 0.00 0.00 0.00 0.00 0.00 0.00 0.00 0.00 0.00 0.00 0.00 0.00 0.00 0.00 0.00 0.00 0.00 0.00 0.00 0.00 0.00 0.00 0.00 0.00 0.01 0.01 0.01 0.00 0.00 0.00 0.00 0.00
0.00 0.00 0.00 0.00 0.00 0.00 0.00 0.00 0.00 0.00 0.00 0.00 0.00 0.00 0.00 0.00 0.00 0.00 0.00 0.00 0.00 0.00 0.00 0.00 0.00 0.00 0.00 0.00 0.00 0.00 0.00 0.00 0.00 0.00 0.00 0.00 0.02 0.03 0.03 0.04 0.03 0.01 0.00 0.00
0.00 0.00 0.00 0.00 0.00 0.00 0.00 0.00 0.00 0.00 0.00 0.00 0.00 0.00 0.00 0.00 0.00 0.00 0.00 0.00 0.00 0.00 0.00 0.00 0.00 0.00 0.00 0.00 0.00 0.00 0.00 0.00 0.00 0.00 0.00 0.00 0.01 0.02 0.02 0.04 0.03 0.01 0.00 0.00
0.00 0.00 0.00 0.00 0.00 0.00 0.00 0.00 0.00 0.00 0.00 0.00 0.00 0.00 0.00 0.00 0.00 0.00 0.00 0.00 0.00 0.00 0.00 0.00 0.00 0.00 0.00 0.00 0.00 0.00 0.00 0.00 0.00 0.00 0.00 0.00 0.00 0.01 0.03 0.04 0.03 0.01 0.01 0.06
0.00 0.00 0.00 0.00 0.00 0.00 0.00 0.00 0.00 0.00 0.00 0.00 0.00 0.00 0.00 0.00 0.00 0.00 0.00 0.00 0.00 0.00 0.00 0.00 0.00 0.00 0.00 0.00 0.00 0.00 0.00 0.00 0.00 0.00 0.00 0.00 0.01 0.02 0.03 0.05 0.06 0.02 0.03 0.08
0.00 0.00 0.00 0.00 0.00 0.00 0.00 0.00 0.00 0.00 0.00 0.00 0.00 0.00 0.00 0.00 0.00 0.00 0.00 0.00 0.00 0.00 0.00 0.00 0.00 0.00 0.00 0.00 0.00 0.00 0.00 0.00 0.00 0.00 0.00 0.01 0.02 0.02 0.04 0.06 0.08 0.04 0.08 0.26
0.00 0.00 0.00 0.00 0.00 0.00 0.00 0.00 0.00 0.00 0.00 0.00 0.00 0.00 0.00 0.00 0.00 0.00 0.00 0.00 0.00 0.00 0.00 0.00 0.00 0.00 0.00 0.00 0.00 0.00 0.00 0.00 0.00 0.00 0.00 0.02 0.01 0.03 0.06 0.09 0.11 0.02 0.04 0.18
0.00 0.00 0.00 0.00 0.00 0.00 0.00 0.00 0.00 0.00 0.00 0.00 0.00 0.00 0.00 0.00 0.00 0.00 0.00 0.00 0.00 0.00 0.00 0.00 0.00 0.00 0.00 0.00 0.00 0.00 0.00 0.00 0.00 0.00 0.00 0.01 0.00 0.02 0.03 0.04 0.08 0.16 0.26 0.28
0.00 0.00 0.00 0.00 0.00 0.00 0.00 0.00 0.00 0.00 0.00 0.00 0.00 0.00 0.00 0.00 0.00 0.00 0.00 0.00 0.00 0.00 0.00 0.00 0.00 0.00 0.00 0.00 0.00 0.00 0.00 0.00 0.00 0.00 0.00 0.00 0.00 0.00 0.01 0.06 0.13 0.14 0.18 0.60
0.00 0.00 0.00 0.00 0.00 0.00 0.00 0.00 0.00 0.00 0.00 0.00 0.00 0.00 0.00 0.00 0.00 0.00 0.00 0.00 0.00 0.00 0.00 0.00 0.00 0.00 0.00 0.00 0.00 0.00 0.00 0.00 0.00 0.00 0.00 0.00 0.00 0.00 0.01 0.08 0.08 0.08 0.03 0.20
0.00 0.00 0.00 0.00 0.00 0.00 0.00 0.00 0.00 0.00 0.00 0.00 0.00 0.00 0.00 0.00 0.00 0.00 0.00 0.00 0.00 0.00 0.00 0.00 0.00 0.00 0.00 0.00 0.00 0.00 0.00 0.00 0.00 0.00 0.00 0.00 0.00 0.00 0.01 0.02 0.04 0.01 0.00 0.00
0.00 0.00 0.00 0.00 0.00 0.00 0.00 0.00 0.00 0.00 0.00 0.00 0.00 0.00 0.00 0.00 0.00 0.00 0.00 0.00 0.00 0.00 0.00 0.00 0.00 0.00 0.00 0.00 0.00 0.00 0.00 0.00 0.00 0.00 0.00 0.00 0.00 0.00 0.00 0.01 0.01 0.00 0.01 0.04
0.00 0.00 0.00 0.00 0.00 0.00 0.00 0.00 0.00 0.00 0.00 0.00 0.00 0.00 0.00 0.00 0.00 0.00 0.00 0.00 0.00 0.00 0.00 0.00 0.00 0.00 0.00 0.00 0.00 0.00 0.00 0.00 0.00 0.00 0.00 0.00 0.00 0.01 0.02 0.00 0.00 0.00 0.00 0.03
0.00 0.00 0.00 0.00 0.00 0.00 0.00 0.00 0.00 0.00 0.00 0.00 0.00 0.00 0.00 0.00 0.00 0.00 0.00 0.00 0.00 0.00 0.00 0.00 0.00 0.00 0.00 0.00 0.00 0.00 0.00 0.00 0.00 0.00 0.00 0.00 0.00 0.00 0.01 0.01 0.01 0.00 0.01 0.01
0.00 0.00 0.00 0.00 0.00 0.00 0.00 0.00 0.00 0.00 0.00 0.00 0.00 0.00 0.00 0.00 0.00 0.00 0.00 0.00 0.00 0.00 0.00 0.00 0.00 0.00 0.00 0.00 0.00 0.00 0.00 0.00 0.00 0.00 0.00 0.00 0.00 0.00 0.01 0.02 0.02 0.01 0.01 0.01
0.00 0.00 0.00 0.00 0.00 0.00 0.00 0.00 0.00 0.00 0.00 0.00 0.00 0.00 0.00 0.00 0.00 0.00 0.00 0.00 0.00 0.00 0.00 0.00 0.00 0.00 0.00 0.00 0.00 0.00 0.00 0.00 0.00 0.00 0.00 0.00 0.00 0.00 0.00 0.01 0.01 0.02 0.01 0.01
0.00 0.00 0.00 0.00 0.00 0.00 0.00 0.00 0.00 0.00 0.00 0.00 0.00 0.00 0.00 0.00 0.00 0.00 0.00 0.00 0.00 0.00 0.00 0.00 0.00 0.00 0.00 0.00 0.00 0.00 0.00 0.00 0.00 0.00 0.00 0.00 0.00 0.00 0.00 0.00 0.00 0.00 0.01 0.01
0.00 0.00 0.00 0.00 0.00 0.00 0.00 0.00 0.00 0.00 0.00 0.00 0.00 0.00 0.00 0.00 0.00 0.00 0.00 0.00 0.00 0.00 0.00 0.00 0.00 0.00 0.00 0.00 0.00 0.00 0.00 0.01 0.01 0.01 0.00 0.00 0.00 0.00 0.00 0.00 0.00 0.00 0.00 0.01
0.00 0.00 0.00 0.00 0.00 0.00 0.00 0.00 0.00 0.00 0.00 0.00 0.00 0.00 0.00 0.00 0.00 0.00 0.00 0.00 0.00 0.00 0.00 0.00 0.00 0.00 0.00 0.00 0.00 0.00 0.00 0.02 0.03 0.03 0.02 0.00 0.00 0.00 0.00 0.00 0.00 0.00 0.00 0.00
0.00 0.00 0.00 0.00 0.00 0.00 0.00 0.00 0.00 0.00 0.00 0.00 0.00 0.00 0.00 0.00 0.00 0.00 0.00 0.00 0.00 0.00 0.00 0.00 0.00 0.00 0.00 0.00 0.00 0.00 0.05 0.03 0.04 0.06 0.03 0.01 0.00 0.00 0.00 0.00 0.00 0.00 0.00 0.01
0.00 0.00 0.00 0.00 0.00 0.00 0.00 0.00 0.00 0.00 0.00 0.00 0.00 0.00 0.00 0.00 0.00 0.00 0.00 0.00 0.00 0.00 0.00 0.00 0.00 0.00 0.00 0.00 0.00 0.00 0.04 0.04 0.06 0.11 0.09 0.05 0.00 0.00 0.00 0.00 0.00 0.00 0.00 0.00
0.00 0.00 0.00 0.00 0.00 0.00 0.00 0.00 0.00 0.00 0.00 0.00 0.00 0.00 0.00 0.00 0.00 0.00 0.00 0.00 0.00 0.00 0.00 0.00 0.00 0.00 0.00 0.00 0.00 0.00 0.00 0.05 0.05 0.08 0.12 0.05 0.00 0.00 0.00 0.00 0.00 0.00 0.00 0.00
MSLP
1009.51 1009.95 1009.77 1009.54 1009.44 1009.39 1009.28 1009.24 1009.16 1008.61 1008.24 1008.66 1008.73 1008.80 1008.79 1009.07 1009.57 1010.04 1010.09 1009.84 1010.22 1009.98 1009.58 1009.92 1010.06 1010.46 1010.94 1011.47 1011.95 1012.30 1012.85 1013.37 1014.06 1014.37 1014.72 1015.06 1014.90 1014.93 1015.00 1014.79 1014.80 1015.05 1015.19 1015.38
1009.69 1009.36 1008.22 1008.51 1008.79 1008.84 1008.98 1009.09 1008.90 1008.47 1008.23 1008.59 1008.75 1008.75 1008.62 1008.99 1009.10 1009.30 1009.38 1009.65 1009.95 1009.62 1009.39 1009.40 1009.53 1009.81 1010.10 1010.44 1010.93 1011.48 1012.01 1012.34 1012.82 1013.26 1013.54 1013.96 1014.14 1014.21 1014.09 1014.06 1014.12 1014.24 1014.49 1014.64
1009.40 1008.27 1007.62 1007.81 1007.96 1008.28 1008.50 1008.68 1008.59 1008.63 1008.49 1008.68 1009.02 1008.98 1009.00 1008.73 1008.88 1008.78 1008.74 1008.80 1009.04 1008.90 1008.84 1009.05 1009.15 1009.17 1009.14 1009.52 1009.80 1010.38 1010.82 1011.19 1011.53 1012.09 1012.97 1013.55 1013.83 1013.94 1014.02 1013.98 1013.91 1013.82 1013.90 1014.09
1008.89 1007.70 1007.36 1007.25 1007.31 1007.57 1007.89 1007.39 1007.95 1008.60 1009.10 1009.50 1009.58 1010.06 1008.77 1008.35 1008.16 1008.06 1007.89 1008.06 1008.25 1008.20 1008.31 1008.29 1008.34 1008.42 1008.44 1008.32 1008.93 1009.35 1009.73 1010.27 1010.59 1011.29 1011.93 1012.32 1012.46 1012.78 1012.52 1012.69 1013.12 1013.11 1013.13 1013.34
1007.72 1007.30 1007.14 1006.98 1006.43 1006.70 1006.96 1006.96 1008.01 1008.80 1009.79 1010.12 1010.29 1010.41 1008.65 1008.34 1007.70 1007.17 1006.82 1006.97 1007.13 1007.20 1007.45 1007.41 1007.46 1007.43 1007.66 1008.17 1008.44 1008.75 1009.03 1009.54 1009.98 1010.52 1010.69 1011.35 1011.87 1011.82 1012.15 1012.62 1012.95 1013.07 1013.06 1013.11
1007.36 1006.68 1006.48 1005.93 1005.58 1005.93 1006.60 1007.63 1008.78 1009.81 1010.72 1011.39 1010.71 1010.47 1008.87 1007.96 1006.87 1006.51 1006.05 1006.13 1006.13 1006.16 1006.54 1006.62 1006.91 1007.27 1007.42 1007.68 1008.06 1008.39 1008.69 1008.91 1009.60 1010.00 1010.38 1010.62 1011.23 1011.66 1012.23 1012.58 1013.16 1013.39 1013.18 1013.18
1007.02 1006.42 1005.76 1005.41 1005.45 1005.84 1006.64 1008.22 1009.85 1011.23 1011.92 1011.52 1010.85 1010.50 1008.18 1006.82 1006.15 1005.86 1005.55 1005.51 1005.47 1005.82 1006.08 1006.50 1006.82 1007.12 1007.40 1007.64 1007.91 1008.29 1008.70 1008.87 1009.32 1009.80 1010.19 1010.37 1010.72 1011.33 1011.66 1012.08 1012.61 1012.97 1012.96 1012.90
1007.89 1006.57 1005.56 1005.03 1005.02 1005.44 1006.51 1007.88 1009.50 1010.91 1012.10 1011.58 1010.87 1009.88 1007.11 1005.89 1005.31 1005.32 1005.20 1005.09 1005.24 1005.49 1005.87 1006.36 1006.73 1007.00 1007.18 1007.45 1007.92 1008.44 1008.69 1009.11 1009.37 1009.75 1010.01 1010.29 1010.55 1010.87 1011.33 1011.51 1012.00 1012.38 1012.36 1012.32
1007.97 1006.87 1005.56 1005.04 1004.83 1005.31 1006.54 1007.87 1008.81 1010.58 1012.01 1011.99 1010.76 1009.07 1006.81 1005.68 1005.37 1005.43 1005.35 1005.22 1005.35 1005.55 1005.88 1005.95 1006.32 1006.79 1007.25 1007.63 1007.88 1008.16 1008.57 1008.70 1008.91 1009.24 1009.63 1009.73 1010.03 1010.44 1010.66 1010.91 1011.29 1011.60 1011.69 1011.81
1008.05 1007.72 1006.40 1005.41 1005.17 1005.64 1006.13 1007.55 1009.05 1010.56 1011.93 1012.35 1011.23 1010.01 1008.20 1006.60 1005.97 1005.88 1005.78 1005.55 1005.64 1005.88 1006.18 1006.09 1006.43 1006.84 1007.16 1007.56 1007.92 1008.14 1008.35 1008.57 1008.67 1008.85 1009.02 1009.14 1009.35 1009.55 1009.95 1010.28 1010.51 1010.76 1010.92 1011.07
1007.87 1008.44 1007.41 1006.53 1006.45 1006.68 1006.95 1007.88 1009.52 1010.89 1011.74 1012.24 1012.03 1009.96 1007.44 1006.93 1006.61 1006.34 1006.04 1005.87 1005.92 1006.06 1006.46 1006.34 1006.58 1006.80 1007.12 1007.61 1007.95 1008.29 1008.53 1008.70 1008.84 1008.97 1009.01 1009.06 1009.14 1009.27 1009.58 1009.73 1009.79 1010.16 1010.40 1010.60
1007.86 1008.82 1008.70 1008.14 1007.26 1007.40 1007.48 1008.09 1009.29 1011.06 1012.24 1012.48 1011.77 1009.23 1007.47 1007.11 1006.71 1006.22 1005.85 1005.97 1005.99 1006.38 1006.69 1006.65 1006.79 1007.01 1007.31 1007.65 1008.09 1008.39 1008.56 1008.64 1008.72 1008.75 1008.79 1008.70 1008.65 1008.89 1008.92 1008.88 1009.15 1009.51 1010.09 1010.16
1007.53 1008.87 1009.44 1008.66 1008.18 1007.69 1007.95 1008.32 1009.37 1010.62 1011.43 1011.92 1011.53 1009.11 1007.14 1006.72 1006.34 1005.95 1006.03 1006.13 1006.24 1006.61 1006.66 1006.98 1007.17 1007.45 1007.71 1007.91 1008.14 1008.27 1008.46 1008.54 1008.52 1008.57 1008.73 1008.64 1008.40 1008.41 1008.42 1008.62 1008.77 1009.01 1009.57 1010.20
1006.92 1009.16 1009.52 1009.48 1008.96 1008.57 1008.50 1008.35 1008.85 1009.99 1011.07 1011.19 1010.48 1008.76 1007.62 1006.69 1006.35 1006.00 1005.94 1005.96 1006.31 1006.64 1006.97 1007.23 1007.54 1007.74 1007.87 1008.04 1008.15 1008.25 1008.33 1008.25 1008.29 1008.39 1008.51 1008.48 1008.27 1008.05 1008.15 1008.40 1008.66 1009.04 1009.50 1009.98
1007.78 1009.15 1009.50 1009.10 1008.68 1008.56 1008.26 1008.10 1008.52 1009.20 1009.26 1009.78 1008.87 1008.73 1007.21 1006.22 1005.84 1005.50 1006.00 1006.38 1006.70 1006.99 1007.07 1007.18 1007.43 1007.65 1007.83 1007.94 1007.92 1008.10 1008.13 1008.16 1008.27 1008.35 1008.32 1008.15 1007.77 1007.42 1007.74 1008.24 1008.61 1008.91 1009.32 1009.66
1008.44 1009.36 1009.86 1009.42 1008.41 1008.61 1008.21 1007.71 1007.90 1008.06 1008.18 1008.22 1007.84 1007.69 1005.83 1005.37 1005.44 1005.37 1005.81 1006.31 1006.51 1006.40 1006.63 1006.80 1006.95 1007.24 1007.37 1007.26 1007.23 1007.60 1007.86 1008.05 1008.22 1008.26 1008.21 1008.01 1007.50 1007.12 1007.32 1007.75 1008.27 1008.67 1008.80 1009.15
1008.72 1009.63 1010.67 1010.06 1009.16 1008.69 1007.98 1006.96 1006.57 1006.46 1006.37 1006.62 1006.80 1005.73 1005.39 1005.32 1005.39 1005.27 1005.34 1005.39 1005.67 1005.95 1006.10 1006.19 1006.30 1006.44 1006.34 1006.22 1006.45 1006.88 1007.26 1007.53 1007.76 1007.91 1007.94 1007.73 1007.39 1007.17 1007.11 1007.29 1007.85 1008.28 1008.57 1008.78
1009.27 1010.35 1010.82 1010.92 1010.12 1009.09 1006.65 1005.70 1005.61 1006.03 1005.86 1005.59 1005.58 1005.05 1005.02 1004.93 1004.72 1004.87 1005.07 1005.27 1005.41 1005.45 1005.41 1005.53 1005.68 1005.68 1005.54 1005.54 1005.88 1006.22 1006.64 1007.05 1007.35 1007.59 1007.55 1007.39 1007.32 1007.13 1007.13 1007.20 1007.44 1007.83 1008.23 1008.47
1009.30 1010.61 1011.59 1011.53 1010.76 1008.86 1006.77 1006.33 1006.21 1006.19 1005.75 1005.13 1005.27 1004.78 1005.04 1005.17 1005.01 1004.64 1004.52 1004.70 1004.75 1004.87 1005.01 1005.06 1005.02 1005.14 1005.25 1005.42 1005.50 1006.04 1006.50 1006.81 1007.16 1007.17 1007.18 1007.19 1007.12 1007.12 1006.99 1007.05 1007.12 1007.47 1007.96 1008.23
1010.07 1010.64 1011.18 1011.97 1011.20 1009.43 1007.85 1006.37 1005.78 1005.94 1005.95 1005.34 1005.21 1005.12 1005.45 1005.37 1005.79 1004.65 1004.41 1004.59 1004.71 1004.85 1004.88 1004.87 1004.76 1005.02 1005.15 1004.83 1005.31 1005.76 1005.92 1006.37 1006.41 1006.48 1006.66 1006.90 1006.94 1006.92 1006.96 1007.02 1007.17 1007.24 1007.51 1007.96
1010.40 1011.21 1011.54 1011.59 1010.80 1008.97 1007.54 1006.48 1005.79 1006.28 1006.79 1005.71 1005.44 1005.17 1005.28 1005.54 1004.79 1004.91 1004.56 1004.64 1004.67 1004.58 1004.45 1004.41 1004.65 1004.68 1004.43 1004.61 1005.02 1005.26 1005.38 1005.32 1005.24 1005.76 1006.13 1006.42 1006.50 1006.56 1006.70 1006.86 1006.99 1007.14 1007.42 1007.73
1010.31 1010.93 1011.43 1011.59 1010.66 1009.00 1007.55 1006.79 1007.20 1007.02 1006.33 1005.86 1005.29 1004.93 1005.24 1004.85 1004.51 1004.40 1004.33 1004.43 1004.45 1004.44 1004.27 1004.37 1004.63 1004.50 1004.03 1004.20 1004.66 1004.67 1004.79 1004.32 1004.95 1005.31 1005.75 1006.08 1006.18 1006.33 1006.49 1006.72 1006.80 1006.94 1007.27 1007.51
1010.45 1010.05 1010.40 1010.60 1009.45 1008.48 1008.00 1007.71 1007.06 1006.71 1006.48 1005.79 1005.36 1004.67 1004.63 1004.81 1004.66 1004.40 1004.47 1004.36 1004.28 1004.22 1004.10 1003.89 1003.89 1003.75 1003.53 1003.63 1003.87 1004.03 1003.32 1004.24 1004.80 1005.19 1005.28 1005.61 1005.94 1006.13 1006.28 1006.55 1006.72 1006.88 1007.13 1007.38
1010.06 1010.04 1010.53 1010.44 1009.48 1008.83 1008.18 1007.37 1006.97 1006.51 1006.19 1005.48 1005.10 1004.83 1004.34 1004.38 1004.32 1004.31 1004.43 1004.38 1004.39 1004.24 1004.19 1003.82 1003.77 1003.29 1003.00 1002.73 1002.93 1002.79 1003.17 1003.47 1004.07 1004.43 1004.83 1005.11 1005.56 1005.86 1005.94 1006.22 1006.55 1006.75 1006.86 1007.13
1010.93 1010.76 1011.09 1010.86 1009.88 1009.10 1008.15 1007.57 1006.94 1006.63 1005.82 1005.29 1004.81 1004.73 1004.68 1004.73 1004.62 1004.61 1004.53 1004.47 1004.39 1004.10 1003.64 1003.43 1003.36 1003.13 1002.48 1001.88 1001.98 1001.83 1002.19 1002.95 1003.29 1003.68 1003.94 1004.52 1004.70 1005.21 1005.49 1005.71 1006.01 1006.27 1006.32 1006.58
1011.90 1011.88 1011.88 1011.47 1010.10 1010.08 1008.85 1007.92 1007.31 1006.72 1006.18 1005.70 1005.36 1004.98 1004.83 1004.93 1004.94 1004.85 1004.79 1004.60 1004.30 1004.12 1003.72 1003.33 1002.89 1002.57 1001.76 1001.42 1001.16 1001.19 1001.63 1001.95 1002.46 1002.87 1003.17 1003.35 1003.85 1004.20 1004.71 1005.11 1005.59 1005.77 1005.89 1006.27
Thickness
5812 5794 5786 5799 5806 5810 5806 5800 5795 5805 5820 5809 5806 5806 5815 5820 5815 5812 5813 5815 5813 5818 5828 5828 5828 5825 5822 5817 5813 5810 5803 5800 5794 5789 5782 5778 5779 5781 5782 5783 5782 5777 5773 5770
5802 5791 5820 5822 5817 5812 5806 5800 5798 5812 5825 5816 5810 5807 5817 5819 5820 5821 5820 5818 5818 5823 5827 5830 5831 5829 5827 5825 5822 5816 5810 5806 5802 5798 5793 5788 5786 5785 5785 5784 5783 5780 5776 5772
5795 5817 5835 5827 5820 5810 5806 5802 5803 5808 5820 5821 5811 5800 5811 5824 5828 5830 5832 5833 5830 5830 5832 5830 5832 5831 5834 5830 5829 5825 5821 5815 5812 5807 5798 5790 5787 5784 5781 5778 5778 5778 5775 5773
5805 5830 5829 5826 5818 5817 5797 5826 5823 5818 5802 5782 5812 5768 5805 5819 5825 5831 5836 5836 5834 5837 5838 5838 5838 5836 5837 5839 5836 5831 5827 5822 5818 5811 5802 5797 5793 5787 5791 5788 5782 5778 5774 5771
5814 5823 5820 5815 5824 5832 5820 5839 5823 5817 5795 5796 5794 5777 5799 5816 5828 5834 5842 5843 5844 5846 5845 5846 5845 5847 5845 5842 5839 5836 5831 5824 5819 5812 5808 5799 5791 5792 5786 5781 5776 5772 5768 5765
5821 5841 5834 5832 5848 5842 5841 5822 5807 5794 5782 5760 5785 5785 5793 5808 5829 5839 5848 5851 5851 5853 5852 5853 5851 5848 5846 5845 5841 5836 5831 5827 5818 5811 5805 5799 5790 5784 5775 5770 5763 5760 5758 5755
5814 5825 5839 5848 5835 5841 5828 5798 5760 5763 5754 5758 5780 5781 5800 5833 5841 5846 5851 5855 5856 5855 5853 5849 5847 5844 5841 5839 5836 5831 5826 5821 5816 5808 5800 5794 5786 5777 5772 5765 5758 5752 5750 5746
5783 5790 5835 5850 5841 5831 5825 5805 5766 5765 5749 5762 5787 5774 5810 5846 5851 5853 5857 5861 5859 5858 5855 5851 5846 5842 5839 5835 5829 5823 5819 5813 5807 5800 5793 5787 5780 5773 5766 5761 5753 5746 5744 5742
5782 5798 5841 5847 5852 5845 5821 5802 5809 5763 5755 5756 5770 5795 5829 5848 5848 5847 5850 5855 5851 5853 5851 5849 5846 5840 5833 5828 5824 5820 5815 5811 5806 5797 5789 5784 5777 5768 5762 5756 5749 5742 5739 5734
5810 5788 5828 5838 5849 5841 5835 5823 5791 5768 5762 5758 5755 5767 5783 5824 5833 5837 5838 5840 5843 5845 5843 5841 5837 5832 5828 5824 5820 5816 5812 5806 5802 5795 5788 5782 5775 5768 5760 5753 5744 5737 5732 5727
5814 5798 5810 5828 5820 5812 5809 5802 5780 5774 5759 5744 5734 5762 5809 5819 5826 5828 5832 5836 5837 5836 5833 5833 5830 5828 5823 5819 5814 5808 5803 5797 5792 5786 5780 5775 5770 5764 5755 5747 5741 5732 5724 5718
5820 5791 5785 5803 5820 5820 5818 5811 5788 5762 5764 5738 5734 5758 5824 5817 5820 5827 5832 5833 5833 5831 5826 5826 5822 5818 5814 5809 5803 5797 5793 5789 5784 5778 5773 5768 5763 5755 5749 5744 5738 5729 5718 5715
5820 5786 5762 5777 5796 5812 5802 5806 5783 5767 5755 5748 5740 5761 5823 5821 5825 5829 5827 5826 5824 5822 5822 5816 5812 5807 5803 5798 5794 5790 5785 5780 5776 5770 5764 5759 5756 5749 5744 5737 5733 5725 5715 5707
5823 5778 5781 5757 5779 5791 5791 5801 5797 5777 5752 5752 5750 5775 5801 5814 5816 5821 5820 5822 5818 5816 5811 5804 5799 5796 5792 5788 5784 5781 5777 5775 5770 5763 5756 5751 5749 5745 5740 5733 5726 5717 5708 5700
5816 5792 5785 5792 5793 5793 5795 5796 5793 5778 5778 5766 5779 5766 5794 5809 5816 5818 5817 5814 5810 5805 5802 5797 5792 5786 5782 5778 5776 5772 5769 5765 5760 5754 5751 5747 5746 5743 5735 5726 5718 5711 5704 5696
5803 5787 5783 5791 5802 5786 5787 5795 5790 5785 5787 5775 5776 5775 5810 5813 5813 5815 5812 5806 5802 5800 5797 5793 5787 5781 5776 5774 5772 5767 5761 5756 5751 5746 5743 5740 5740 5739 5732 5723 5714 5708 5702 5694
5800 5777 5764 5760 5784 5779 5770 5788 5796 5800 5802 5796 5778 5801 5812 5807 5805 5805 5805 5804 5799 5795 5792 5786 5782 5778 5776 5773 5768 5761 5756 5751 5745 5740 5736 5734 5733 5729 5726 5721 5711 5704 5700 5694
5780 5770 5755 5751 5765 5741 5797 5812 5809 5797 5799 5801 5799 5803 5804 5804 5807 5805 5801 5795 5791 5790 5787 5782 5777 5774 5771 5768 5762 5756 5747 5741 5736 5731 5729 5727 5724 5721 5718 5715 5709 5704 5698 5694
5785 5763 5750 5745 5733 5761 5791 5794 5791 5785 5784 5806 5794 5800 5798 5796 5798 5796 5797 5793 5789 5785 5781 5775 5771 5765 5761 5755 5752 5744 5736 5730 5724 5722 5720 5718 5716 5712 5710 5708 5705 5701 5696 5691
5771 5762 5758 5726 5739 5736 5765 5790 5799 5792 5755 5794 5793 5790 5783 5783 5758 5774 5786 5783 5777 5773 5768 5763 5760 5753 5747 5747 5739 5733 5728 5721 5717 5716 5712 5710 5707 5705 5701 5699 5697 5695 5692 5687
5757 5748 5748 5726 5728 5743 5768 5784 5790 5747 5745 5779 5784 5781 5774 5767 5772 5772 5773 5770 5766 5762 5758 5755 5748 5742 5741 5738 5730 5724 5719 5716 5717 5708 5703 5700 5699 5696 5694 5691 5690 5688 5685 5683
5758 5745 5735 5721 5726 5727 5776 5775 5754 5758 5769 5771 5773 5774 5766 5765 5767 5766 5763 5757 5753 5748 5746 5741 5735 5732 5734 5729 5721 5716 5711 5716 5707 5700 5694 5691 5690 5688 5686 5684 5683 5682 5679 5677
5741 5753 5742 5740 5735 5759 5763 5763 5767 5763 5758 5762 5765 5767 5762 5756 5754 5752 5745 5741 5739 5736 5732 5732 5730 5728 5726 5721 5717 5711 5715 5704 5696 5690 5688 5685 5681 5680 5679 5677 5677 5675 5673 5672
5754 5749 5739 5740 5750 5752 5753 5757 5756 5758 5754 5758 5757 5755 5755 5749 5745 5740 5733 5729 5726 5725 5723 5723 5718 5718 5717 5716 5712 5711 5705 5700 5692 5686 5681 5679 5675 5673 5675 5673 5672 5670 5669 5668
5735 5736 5724 5718 5734 5738 5747 5746 5748 5748 5750 5748 5749 5745 5739 5734 5730 5727 5720 5716 5716 5715 5717 5714 5709 5707 5710 5713 5709 5709 5702 5693 5689 5682 5680 5674 5674 5670 5670 5670 5668 5667 5669 5668
5718 5715 5707 5705 5726 5718 5724 5734 5736 5735 5735 5733 5732 5730 5726 5721 5714 5712 5706 5705 5705 5703 5703 5702 5702 5702 5706 5706 5704 5701 5694 5690 5685 5681 5678 5677 5673 5672 5670 5666 5663 5663 5665 5662